OPS 4682 DEB, 18670

Orbit data source: Space-Track

OPS 4682 DEB, 18670 is space debris in LEO originally from a launch on Sat, 03 Apr 1965 UTC launched from the Air Force Western Test Range (AFWTR). Debris objects in space refer to the collection of defunct objects orbiting the Earth. Examples of debris include non-operational satellites, rocket bodies, and fragments generated from explosions, collisions, or faulty payload assembly.

Loading next visibility...
Identifier
18670, 1965-027AG
Orbit
LEO
Last TLE update
2 days ago
Origin
Manufacturer
Unknown
Mission
Spacecraft
Bus & Motor
Unknown
Mass
Unknown
Launch date (UTC)
1965-04-03 (60 years ago)
Launch vehicle
Unknown
Launch site
Air Force Western Test Range (AFWTR)
Object type
Payload
Rocket body
Debris
Shape & HBR
Unknown
Radar Cross Section
Small (<0.1 m²)

Expand to show TLE details & history

TLE from 2 days ago
0 OPS 4682 DEB
1 18670U 65027AG  25180.17071772  .00000073  00000-0  22712-3 0  9997
2 18670  90.2365 348.5896 0023194 350.8250   9.2444 12.96944425617007
Epoch: 2025-06-29T04:05Z
TLE epoch observation values (Epoch: 2025-06-29T04:05:50.011Z)
Latitude
0.00006°
Longitude
9.63251°
Altitude
1,259.441 km
Speed
7.234 km/s
True Right ascension
23h 14m 21s
True Declination
0° 00' 00"
Sunlit
Object was in daylight at epoch
Visualization orbit readout
Latitude
59.00037°
Longitude
9.28972°
Altitude
1,279.205 km
Speed
7.224 km/s
Apparent Right ascension
06h 22m 41s
Apparent Declination
51° 47' 34"
Sunlit
Object is in daylight
Visualization observer readout
Local Sidereal Time
21:43:59
Azimuth
29.079° NE
Elevation
11.616°
Doppler factor
1
Orbital elements
Apogee altitude
1,288.955 km
Perigee altitude
1,253.472 km
Semi-major axis
7,649.351 km
Eccentricity
0.00232
Inclination
90.2365°
RAAN
348.5896°
Arg. of periapsis
350.825°
True anomaly
Unknown
Mean anomaly
9.2444°
Eccentric anomaly
Unknown
Mean motion
3.24419 °/min
Orbital period
110.97 mins
BSTAR
0.00022712
Loading maneuver chart data...
Loading SW <> Apogee altitude chart data...
Loading historical data...
Loading historical data...
Loading historical data...
Loading historical data...
Loading historical data...
Loading historical data...
Loading historical data...

OPS 4682 DEB Visibility forecast

Observer location: undefined°, undefined°

Span
Click to sort rows by Start time (UTC) header in descending order
Start Az.
Max El. time (UTC)
Max El. Az.
Max El.
End time (UTC)
End Az.
13 mins2025-07-01 11:44:36.298Z186.122° SSW2025-07-01 11:50:36.298Z256.443° W43.531°2025-07-01 11:57:36.298Z352.665° N
5 mins2025-07-01 21:34:36.298Z58.231° ENE2025-07-01 21:36:36.298Z74.916° E13.363°2025-07-01 21:39:36.298Z99.032° ESE
13 mins2025-07-01 23:22:36.298Z5.303° NNE2025-07-01 23:28:36.298Z124.273° SE44.679°2025-07-01 23:35:36.298Z180.805° SSW
8 mins2025-07-02 01:14:36.298Z321.828° NNW2025-07-02 01:18:36.298Z286.395° WNW17.273°2025-07-02 01:22:36.298Z253.648° W
5 mins2025-07-02 10:00:36.298Z113.211° SE2025-07-02 10:04:36.298Z75.631° E21.886°2025-07-02 10:05:36.298Z64.193° ENE
|